Flag Weather past 2 weeks in Durban, South Africa

Now
68 °F

Passing clouds.


Feels Like: 68 °F
Forecast: 65 / 73 °F
Wind: 16 mph from Southwest

Location: King Shaka International Airport

Current Time: Nov 24, 2014 at 10:24:29 PM

Latest Report: Nov 24, 2014 at 10:00 PM


Visibility: N/A

Pressure: 30.12 "Hg

Humidity: 78%

Dew point: 61 °F

Location of DurbanLocation

Historic Weather in Durban — Graph

°F

Durban temperature yesterday

Maximum temperature yesterday: 75 °F (at 12:00 PM)
Minimum temperature yesterday: 68 °F (at 5:00 AM)
Average temperature yesterday: 73 °F

Past Weeks' High & Low Weather Summary

 TemperatureHumidityPressure
High82 °F (Nov 24, 9:00 AM)94% (Nov 11, 5:00 AM)30.36 "Hg (Nov 11, 5:00 AM)
Low57 °F (Nov 18, 5:00 AM)40% (Nov 16, 10:00 AM)29.62 "Hg (Nov 12, 7:00 PM)
Average69 °F74%30.01 "Hg
* Reported Nov 9 9:00 PM — Nov 24 9:00 PM, Durban, Weather by CustomWeather, © 2014

Note: Actual official high and low records may vary slightly from our data, if they occured in-between our weather recording intervals... More about our weather records

Advertising

Durban weather history for previous 24 hours

 ConditionsComfort  
Time TempWeatherWind HumidityBarometerVisibility
9:00 PM
Nov 24
70 °FPassing clouds.14 mph78%30.09 "HgN/A
8:00 PM70 °FPassing clouds.18 mph78%30.07 "HgN/A
7:00 PM72 °FPassing clouds.15 mph69%30.07 "HgN/A
6:00 PM72 °FPartly cloudy.15 mph73%30.04 "HgN/A
4:00 PM75 °FPassing clouds.22 mph65%29.98 "HgN/A
3:00 PM75 °FPassing clouds.25 mph69%29.98 "HgN/A
2:00 PM77 °FPassing clouds.23 mph65%29.98 "HgN/A
1:00 PM77 °FPassing clouds.23 mph65%29.95 "HgN/A
12:00 PM77 °FPassing clouds.23 mph69%29.95 "HgN/A
11:00 AM77 °FPassing clouds.20 mph69%29.98 "HgN/A
10:00 AM79 °FPassing clouds.18 mph65%29.98 "HgN/A
9:00 AM82 °FPassing clouds.13 mph55%29.95 "HgN/A
8:00 AM81 °FSunny.14 mph51%29.95 "Hg10 mi
7:00 AM77 °FPassing clouds.5 mph61%29.95 "HgN/A
6:00 AM70 °FSunny.1 mph78%29.95 "Hg10 mi
5:00 AM66 °FPassing clouds.1 mph83%29.95 "HgN/A
4:00 AM70 °FScattered clouds.7 mph78%29.92 "HgN/A
3:00 AM70 °FClear.10 mph78%29.89 "Hg10 mi
2:00 AM68 °FClear.5 mph78%29.86 "Hg10 mi
1:00 AM70 °FClear.5 mph73%29.86 "Hg10 mi
12:00 AM72 °FClear.6 mph73%29.86 "Hg10 mi
11:00 PM
Nov 23
70 °FClear.6 mph78%29.86 "Hg10 mi
10:00 PM70 °FClear.2 mph78%29.86 "Hg10 mi
Weather by CustomWeather, © 2014

See weather overviewHow to use our weather pages